CW8746 Weather Reports


Display with metric or nautical units.
time (UTC)temp
F
wind
direction
speed
MPH
gust
MPH
rain 1hr
in
rain 24hr
in
rain mn
in
humidity
%
barometer
mb
20180923060021 59 0.0 0.0 0.00 0.00 0.00 48 1012.7
20180923055021 59 0.0 0.0 0.00 0.00 0.00 47 1012.7
20180923054021 60 0.0 0.0 0.00 0.00 0.00 47 1012.8
20180923053016 60 0.0 0.0 0.00 0.00 0.00 46 1012.8
20180923052021 60 0.0 0.0 0.00 0.00 0.00 46 1012.7
20180923051021 60 0.0 0.0 0.00 0.00 0.00 46 1012.8
20180923050021 61 0.0 0.0 0.00 0.00 0.00 44 1012.8
20180923045021 62 0.0 0.0 0.00 0.00 0.00 44 1012.7
20180923044021 62 0.0 0.0 0.00 0.00 0.00 43 1012.8
20180923043021 63 0.0 0.0 0.00 0.00 0.00 41 1012.8
20180923042016 64 0.0 0.0 0.00 0.00 0.00 40 1012.7
20180923041025 64 0.0 0.0 0.00 0.00 0.00 40 1012.6
20180923040021 65 0.0 0.0 0.00 0.00 0.00 39 1012.4
20180923035021 66 0.0 0.0 0.00 0.00 0.00 38 1012.3
20180923034021 66 0.0 0.0 0.00 0.00 0.00 37 1012.2
20180923033021 67 0.0 0.0 0.00 0.00 0.00 37 1012.0
20180923032015 68 0.0 0.0 0.00 0.00 0.00 35 1011.9
20180923031021 69 0.0 0.0 0.00 0.00 0.00 34 1011.8
20180923030021 70 0.0 0.0 0.00 0.00 0.00 33 1011.7
20180923025021 71 0.0 0.0 0.00 0.00 0.00 32 1011.6
20180923024021 73 0.0 0.0 0.00 0.00 0.00 30 1011.7
20180923023021 75 0.0 0.0 0.00 0.00 0.00 29 1011.7
20180923022016 78 0.0 0.0 0.00 0.00 0.00 27 1011.8
20180923021015 80 0.0 0.0 0.00 0.00 0.00 25 1011.8
20180923020021 82 0.0 1.0 0.00 0.00 0.00 24 1011.8
20180923015021 83 296 0.0 5.0 0.00 0.00 0.00 23 1011.9
20180923014021 85 282 1.0 6.0 0.00 0.00 0.00 22 1011.9
20180923013021 86 280 2.0 6.0 0.00 0.00 0.00 21 1012.1
20180923012020 87 264 3.0 6.0 0.00 0.00 0.00 21 1012.1
20180923011015 88 286 1.0 9.0 0.00 0.00 0.00 20 1012.2
20180923010024 89 281 3.0 9.0 0.00 0.00 0.00 20 1012.3
20180923005020 89 279 3.0 11.0 0.00 0.00 0.00 19 1012.4
20180923004021 89 268 4.0 11.0 0.00 0.00 0.00 20 1012.4
20180923003020 90 276 4.0 12.0 0.00 0.00 0.00 19 1012.4
20180923002020 90 268 5.0 12.0 0.00 0.00 0.00 19 1012.4
20180923001015 90 278 4.0 10.0 0.00 0.00 0.00 18 1012.5
20180923000016 91 263 4.0 10.0 0.00 0.00 0.00 18 1012.5
20180922235020 91 264 4.0 10.0 0.00 0.00 0.00 18 1012.5
20180922234020 91 262 3.0 10.0 0.00 0.00 0.00 18 1012.6
20180922233020 91 268 4.0 10.0 0.00 0.00 0.00 18 1012.6
20180922232020 91 267 3.0 10.0 0.00 0.00 0.00 18 1012.7
20180922231021 91 276 4.0 10.0 0.00 0.00 0.00 18 1012.8
20180922230015 91 266 4.0 11.0 0.00 0.00 0.00 18 1012.9
20180922225020 92 263 3.0 12.0 0.00 0.00 0.00 18 1012.9
20180922224020 91 262 4.0 13.0 0.00 0.00 0.00 18 1013.0
20180922223021 92 276 3.0 13.0 0.00 0.00 0.00 18 1013.0
20180922222020 92 268 4.0 14.0 0.00 0.00 0.00 18 1013.1
20180922221017 91 270 4.0 14.0 0.00 0.00 0.00 18 1013.2
20180922220022 91 274 3.0 10.0 0.00 0.00 0.00 18 1013.3
20180922215040 91 264 3.0 12.0 0.00 0.00 0.00 18 1013.4
20180922214022 91 258 3.0 12.0 0.00 0.00 0.00 18 1013.6
20180922213022 91 269 3.0 10.0 0.00 0.00 0.00 17 1013.6
20180922212022 91 269 3.0 12.0 0.00 0.00 0.00 17 1013.8
20180922211017 90 245 3.0 12.0 0.00 0.00 0.00 18 1013.9
20180922210020 90 258 3.0 11.0 0.00 0.00 0.00 18 1014.1
20180922205027 89 261 3.0 11.0 0.00 0.00 0.00 18 1014.2
20180922204022 89 260 4.0 10.0 0.00 0.00 0.00 18 1014.2
20180922203022 89 246 2.0 13.0 0.00 0.00 0.00 18 1014.4
20180922202022 88 266 5.0 13.0 0.00 0.00 0.00 18 1014.5
20180922201022 89 232 3.0 9.0 0.00 0.00 0.00 18 1014.6
20180922200017 88 265 3.0 11.0 0.00 0.00 0.00 18 1014.7
20180922195022 88 273 5.0 11.0 0.00 0.00 0.00 16 1014.8
20180922194022 89 260 2.0 13.0 0.00 0.00 0.00 16 1014.9
20180922193021 87 274 4.0 13.0 0.00 0.00 0.00 17 1015.0
20180922192022 88 259 4.0 11.0 0.00 0.00 0.00 17 1015.1
20180922191022 88 224 1.0 10.0 0.00 0.00 0.00 17 1015.2
20180922190017 87 256 3.0 11.0 0.00 0.00 0.00 17 1015.2
20180922185022 87 242 2.0 11.0 0.00 0.00 0.00 17 1015.3
20180922184025 88 248 2.0 7.0 0.00 0.00 0.00 17 1015.3
20180922183022 88 198 2.0 7.0 0.00 0.00 0.00 18 1015.4
20180922181021 87 179 1.0 4.0 0.00 0.00 0.00 18 1015.4
20180922180021 86 165 1.0 5.0 0.00 0.00 0.00 19 1015.5
20180922175017 86 162 0.0 6.0 0.00 0.00 0.00 19 1015.6
20180922174021 85 129 1.0 6.0 0.00 0.00 0.00 20 1015.6
20180922173021 86 143 0.0 4.0 0.00 0.00 0.00 19 1015.7
20180922172022 84 143 0.0 4.0 0.00 0.00 0.00 21 1015.8
20180922171021 83 138 0.0 3.0 0.00 0.00 0.00 22 1015.8
20180922170021 82 158 0.0 3.0 0.00 0.00 0.00 23 1015.7
20180922165016 80 212 0.0 3.0 0.00 0.00 0.00 24 1015.7
20180922164021 78 273 0.0 1.0 0.00 0.00 0.00 26 1015.7
20180922163022 77 273 0.0 1.0 0.00 0.00 0.00 27 1015.6
20180922162021 76 0.0 0.0 0.00 0.00 0.00 29 1015.6
20180922161021 74 0.0 0.0 0.00 0.00 0.00 35 1015.5
20180922160021 72 0.0 0.0 0.00 0.00 0.00 36 1015.4
20180922155017 68 0.0 0.0 0.00 0.00 0.00 42 1015.5
20180922154016 66 0.0 0.0 0.00 0.00 0.00 44 1015.4
20180922153025 62 0.0 0.0 0.00 0.00 0.00 48 1015.3
20180922152021 59 0.0 0.0 0.00 0.00 0.00 54 1015.0
20180922151022 55 0.0 0.0 0.00 0.00 0.00 58 1015.0
20180922150019 53 0.0 0.0 0.00 0.00 0.00 62 1014.9
20180922145021 50 0.0 0.0 0.00 0.00 0.00 65 1015.0
20180922144016 49 0.0 0.0 0.00 0.00 0.00 67 1015.0
20180922143023 48 0.0 0.0 0.00 0.00 0.00 68 1015.0
20180922142021 48 0.0 0.0 0.00 0.00 0.00 68 1015.0
20180922141021 47 0.0 0.0 0.00 0.00 0.00 68 1015.0
20180922140021 47 0.0 0.0 0.00 0.00 0.00 68 1015.1
20180922135021 47 0.0 0.0 0.00 0.00 0.00 68 1015.1
20180922134016 47 0.0 0.0 0.00 0.00 0.00 68 1015.2
20180922133016 47 0.0 0.0 0.00 0.00 0.00 68 1015.0
20180922132021 47 0.0 0.0 0.00 0.00 0.00 68 1015.0
20180922131021 48 0.0 0.0 0.00 0.00 0.00 67 1014.9
20180922130021 48 0.0 0.0 0.00 0.00 0.00 68 1015.0
20180922125019 48 0.0 0.0 0.00 0.00 0.00 67 1014.9
20180922124021 48 0.0 0.0 0.00 0.00 0.00 68 1014.7
20180922123015 48 0.0 0.0 0.00 0.00 0.00 67 1014.7
20180922122024 48 0.0 0.0 0.00 0.00 0.00 67 1014.8
20180922121021 48 0.0 0.0 0.00 0.00 0.00 67 1014.9
20180922120021 48 0.0 0.0 0.00 0.00 0.00 67 1015.0
20180922115021 49 0.0 0.0 0.00 0.00 0.00 66 1014.9
20180922114021 49 0.0 0.0 0.00 0.00 0.00 66 1014.9
20180922113015 49 0.0 0.0 0.00 0.00 0.00 66 1014.9
20180922112015 49 0.0 0.0 0.00 0.00 0.00 67 1014.9
20180922111021 49 0.0 0.0 0.00 0.00 0.00 67 1014.9
20180922110021 49 0.0 0.0 0.00 0.00 0.00 66 1015.0
20180922105022 50 0.0 0.0 0.00 0.00 0.00 64 1015.0
20180922104019 50 0.0 0.0 0.00 0.00 0.00 63 1015.1
20180922103020 50 0.0 0.0 0.00 0.00 0.00 64 1015.1
20180922102048 50 0.0 0.0 0.00 0.00 0.00 64 1015.1
20180922101020 50 0.0 0.0 0.00 0.00 0.00 63 1015.1
20180922100020 50 0.0 0.0 0.00 0.00 0.00 62 1015.1
20180922095023 50 0.0 0.0 0.00 0.00 0.00 62 1015.3
20180922094020 51 0.0 0.0 0.00 0.00 0.00 59 1015.3
20180922093021 51 0.0 0.0 0.00 0.00 0.00 59 1015.4
20180922091015 52 0.0 0.0 0.00 0.00 0.00 59 1015.4
20180922090020 52 0.0 0.0 0.00 0.00 0.00 57 1015.5
20180922085020 52 0.0 0.0 0.00 0.00 0.00 59 1015.4
20180922084020 51 0.0 0.0 0.00 0.00 0.00 59 1015.3
20180922083018 51 0.0 0.0 0.00 0.00 0.00 58 1015.3
20180922082020 51 0.0 0.0 0.00 0.00 0.00 58 1015.3
20180922081015 51 0.0 0.0 0.00 0.00 0.00 56 1015.3
20180922080020 52 0.0 0.0 0.00 0.00 0.00 55 1015.2
20180922075022 52 0.0 0.0 0.00 0.00 0.00 55 1015.2
20180922074022 52 0.0 0.0 0.00 0.00 0.00 54 1015.3
20180922073022 53 0.0 0.0 0.00 0.00 0.00 54 1015.5
20180922072017 53 0.0 0.0 0.00 0.00 0.00 52 1015.4
20180922071022 54 0.0 0.0 0.00 0.00 0.00 51 1015.4
20180922070022 54 0.0 0.0 0.00 0.00 0.00 50 1015.4
20180922065021 54 0.0 0.0 0.00 0.00 0.00 50 1015.4
20180922064021 54 0.0 0.0 0.00 0.00 0.00 50 1015.4
20180922063016 55 0.0 0.0 0.00 0.00 0.00 49 1015.3
20180922062022 55 0.0 0.0 0.00 0.00 0.00 48 1015.3
20180922061025 56 0.0 0.0 0.00 0.00 0.00 47 1015.4